TimeEST,TemperatureF,Dew PointF,Humidity,Sea Level PressureIn,VisibilityMPH,Wind Direction,Wind SpeedMPH,Gust SpeedMPH,PrecipitationIn,Events,Conditions,WindDirDegrees,DateUTC
1:55 AM,35.6,24.8,65,30.17,10.0,North,3.5,-,N/A,,Clear,350,2012-11-21 06:55:00
2:15 AM,37.4,24.8,60,30.17,10.0,NNE,4.6,-,N/A,,Clear,30,2012-11-21 07:15:00
2:35 AM,37.4,24.8,60,30.17,10.0,NE,4.6,-,N/A,,Clear,40,2012-11-21 07:35:00
2:55 AM,37.4,24.8,60,30.18,4.0,Calm,Calm,-,N/A,,Clear,0,2012-11-21 07:55:00
3:15 AM,35.6,24.8,65,30.18,10.0,Calm,Calm,-,N/A,,Clear,0,2012-11-21 08:15:00
3:35 AM,35.6,23.0,60,30.18,10.0,Calm,Calm,-,N/A,,Clear,0,2012-11-21 08:35:00
3:55 AM,35.6,24.8,65,30.17,10.0,ENE,3.5,-,N/A,,Clear,60,2012-11-21 08:55:00
4:15 AM,37.4,24.8,60,30.17,10.0,NE,4.6,-,N/A,,Clear,50,2012-11-21 09:15:00
4:35 AM,37.4,24.8,60,30.18,10.0,NNE,5.8,-,N/A,,Clear,30,2012-11-21 09:35:00
4:55 AM,35.6,23.0,60,30.19,10.0,North,4.6,-,N/A,,Clear,10,2012-11-21 09:55:00
5:15 AM,35.6,23.0,60,30.20,10.0,NNE,4.6,-,N/A,,Clear,30,2012-11-21 10:15:00
5:35 AM,35.6,24.8,65,30.20,10.0,NE,3.5,-,N/A,,Clear,40,2012-11-21 10:35:00
5:45 AM,35.6,23.0,60,30.20,10.0,NE,5.8,-,N/A,,Clear,50,2012-11-21 10:45:00
6:45 AM,35.6,23.0,60,30.21,10.0,NNE,6.9,-,N/A,,Clear,20,2012-11-21 11:45:00
7:45 AM,37.4,24.8,60,30.22,10.0,NE,8.1,-,N/A,,Clear,40,2012-11-21 12:45:00
8:45 AM,41.0,24.8,53,30.23,10.0,NE,6.9,-,N/A,,Clear,40,2012-11-21 13:45:00
9:45 AM,44.6,28.4,53,30.23,10.0,NE,11.5,-,N/A,,Clear,40,2012-11-21 14:45:00
10:45 AM,46.4,30.2,53,30.24,10.0,NE,8.1,-,N/A,,Clear,50,2012-11-21 15:45:00
11:45 AM,48.2,26.6,43,30.22,10.0,ENE,9.2,-,N/A,,Clear,60,2012-11-21 16:45:00
12:45 PM,48.2,26.6,43,30.20,10.0,NE,10.4,-,N/A,,Clear,50,2012-11-21 17:45:00
1:45 PM,48.2,24.8,40,30.19,10.0,East,8.1,-,N/A,,Clear,80,2012-11-21 18:45:00
2:45 PM,48.2,24.8,40,30.19,10.0,NE,6.9,-,N/A,,Clear,40,2012-11-21 19:45:00
3:45 PM,48.2,24.8,40,30.20,10.0,NE,6.9,-,N/A,,Clear,40,2012-11-21 20:45:00
4:45 PM,44.6,24.8,46,30.21,10.0,NE,4.6,-,N/A,,Clear,50,2012-11-21 21:45:00
6:50 PM,44.6,24.8,46,30.25,10.0,ENE,5.8,-,N/A,,Clear,70,2012-11-21 23:50:00
7:50 PM,41.0,24.8,53,30.26,10.0,ENE,4.6,-,N/A,,Clear,60,2012-11-22 00:50:00
8:45 PM,39.2,24.8,56,30.27,10.0,NE,5.8,-,N/A,,Clear,40,2012-11-22 01:45:00